CST,Max TemperatureF,Mean TemperatureF,Min TemperatureF,Max Dew PointF,MeanDew PointF,Min DewpointF,Max Humidity, Mean Humidity, Min Humidity, Max Sea Level PressureIn, Mean Sea Level PressureIn, Min Sea Level PressureIn, Max VisibilityMiles, Mean VisibilityMiles, Min VisibilityMiles, Max Wind SpeedMPH, Mean Wind SpeedMPH, Max Gust SpeedMPH,PrecipitationIn, CloudCover, Events, WindDirDegrees
2013-12-1,21,20,19,19,18,18,100,94,86,30.22,30.09,29.88,10,6,1,16,6,16,0.00,8,Snow,167
2013-12-2,24,22,19,23,20,18,100,90,80,29.86,29.77,29.70,10,6,2,21,14,26,0.00,8,Rain-Snow,56
2013-12-3,23,18,14,19,15,10,100,91,80,29.98,29.92,29.83,10,5,1,25,19,32,0.00,8,Rain-Snow,1
2013-12-4,15,10,6,14,10,1,93,89,79,29.97,29.86,29.78,3,1,0,28,20,37,0.00,8,Rain-Snow,352
2013-12-5,6,2,-2,1,-2,-9,85,78,66,30.29,30.02,29.79,10,6,1,25,20,32,0.00,7,Rain-Snow,308
2013-12-6,-2,-8,-14,-9,-16,-20,77,68,60,30.56,30.45,30.29,10,10,10,17,12,17,0.00,0,,281
2013-12-7,-7,-14,-20,-17,-21,-26,77,70,59,30.56,30.51,30.40,10,10,9,17,9,,0.00,1,,239
2013-12-8,0,-11,-22,-4,-14,-27,85,77,69,30.40,30.17,29.99,10,7,1,14,10,,0.00,5,Snow,189
2013-12-9,-2,-8,-13,-8,-15,-20,85,72,64,30.00,29.91,29.81,10,9,2,16,11,22,0.00,1,Snow,240
2013-12-10,0,-6,-13,-9,-14,-18,84,74,65,30.35,30.03,29.85,10,10,7,15,7,18,0.00,1,,285
2013-12-11,0,-9,-18,-6,-16,-26,85,72,60,30.42,30.32,30.18,10,10,2,14,9,,0.00,2,Snow,227
2013-12-12,6,-2,-9,0,-6,-15,92,78,65,30.32,30.23,30.18,10,9,1,18,6,22,0.00,5,Rain-Snow,334
2013-12-13,-4,-6,-9,-13,-14,-17,77,67,60,30.44,30.38,30.32,10,8,1,17,13,21,0.00,4,Rain-Snow,26
2013-12-14,-4,-9,-14,-9,-12,-20,78,75,65,30.40,30.27,30.20,10,7,2,15,6,17,0.00,5,Snow,358
2013-12-15,0,-12,-22,-8,-17,-29,84,76,69,30.25,30.15,29.92,10,9,2,22,8,26,0.00,4,Snow,113
2013-12-16,32,16,0,27,13,-6,92,79,64,29.93,29.78,29.74,10,9,0,28,17,33,0.00,3,Rain-Snow,249
2013-12-17,28,13,-2,21,3,-8,93,78,66,30.11,29.99,29.79,10,8,0,31,18,39,0.00,4,Rain-Snow,346
2013-12-18,17,8,0,14,5,-6,92,85,73,30.08,29.73,29.55,10,7,1,33,15,40,0.00,4,Rain-Snow,327
2013-12-19,0,-6,-11,-4,-10,-17,85,77,71,30.33,30.24,30.09,10,7,2,24,15,31,0.00,5,Snow,346
2013-12-20,5,-2,-9,0,-6,-13,92,81,71,30.17,29.95,29.84,10,10,8,14,9,18,0.00,1,,204
2013-12-21,0,-6,-11,-4,-14,-18,85,76,70,30.24,30.08,29.87,10,9,5,20,13,23,0.00,2,,350
2013-12-22,-5,-8,-11,-13,-16,-20,77,71,59,30.50,30.32,30.21,10,10,6,23,16,28,0.00,2,,345
2013-12-23,-7,-12,-18,-17,-20,-24,84,73,64,30.60,30.50,30.29,10,10,9,20,10,20,0.00,0,,257
2013-12-24,19,4,-11,16,-1,-18,93,81,65,30.28,30.04,29.95,10,8,0,25,18,36,0.00,6,Rain-Snow,172
2013-12-25,19,12,6,16,9,5,100,84,73,30.15,30.07,29.94,10,9,3,18,8,24,0.00,6,Snow,360
2013-12-26,19,10,0,18,7,-2,100,87,78,30.10,30.05,29.94,10,10,4,14,7,,0.00,7,Snow,156
2013-12-27,35,27,19,30,25,18,100,89,75,29.95,29.85,29.70,10,9,2,22,13,29,0.00,4,Rain,325
2013-12-28,21,4,-13,21,1,-20,100,87,70,30.50,30.09,29.80,10,3,0,41,20,51,0.00,7,Rain-Snow,358
2013-12-29,-7,-14,-20,-17,-20,-26,84,69,59,30.50,30.35,30.16,10,9,8,21,11,28,0.00,1,,250
2013-12-30,-5,-14,-22,-11,-18,-27,84,75,69,30.28,30.22,30.14,10,9,5,14,6,20,0.00,4,Snow,339
2013-12-31,-11,-16,-20,-18,-25,-27,76,70,63,30.47,30.37,30.22,10,10,7,14,9,20,0.00,0,,345